ACA114 CYVR-CYYZ

Flight info

Callsign ACA114
Flight time N/A
Altitude 35000
Route DCT ALNOD DCT IKNIX DCT MEDAK DCT GORAK DCT YBR DCT GERTY DCT AGLIN DCT OTNIK BOXUM7
Aircraft B77W/H-SDE1E2E3FGHIJ2J3J4J5M1RWXY/LB1D1

Departure

Time 2026-05-03 21:38
Airport Vancouver International Airport (CYVR)

Arrival

Time N/A
Airport Toronto Pearson International Airport (CYYZ)
Time Latitude Longitude Altitude Speed Heading
2026-05-03 21:02 49.19620 -123.18391 29 ft 0 kts 185°
2026-05-03 21:22 49.19630 -123.18390 29 ft 4 kts 185°
2026-05-03 21:23 49.19657 -123.18386 29 ft 4 kts 185°
2026-05-03 21:23 49.19678 -123.18383 29 ft 4 kts 203°
2026-05-03 21:23 49.19689 -123.18362 28 ft 4 kts 278°
2026-05-03 21:23 49.19685 -123.18323 28 ft 4 kts 280°
2026-05-03 21:24 49.19684 -123.18311 26 ft 2 kts 280°
2026-05-03 21:24 49.19683 -123.18310 26 ft 0 kts 280°
2026-05-03 21:27 49.19689 -123.18357 28 ft 12 kts 281°
2026-05-03 21:27 49.19696 -123.18408 27 ft 1 kts 281°
2026-05-03 21:27 49.19699 -123.18435 28 ft 1 kts 280°
2026-05-03 21:28 49.19700 -123.18443 28 ft 0 kts 279°
2026-05-03 21:28 49.19700 -123.18448 28 ft 3 kts 279°
2026-05-03 21:29 49.19709 -123.18522 28 ft 8 kts 279°
2026-05-03 21:29 49.19714 -123.18605 30 ft 8 kts 263°
2026-05-03 21:29 49.19683 -123.18675 29 ft 9 kts 213°
2026-05-03 21:29 49.19624 -123.18697 29 ft 9 kts 188°
2026-05-03 21:30 49.19561 -123.18711 29 ft 9 kts 188°
2026-05-03 21:30 49.19498 -123.18731 29 ft 10 kts 192°
2026-05-03 21:30 49.19429 -123.18730 29 ft 10 kts 155°
2026-05-03 21:30 49.19361 -123.18696 29 ft 11 kts 182°
2026-05-03 21:31 49.19283 -123.18714 29 ft 12 kts 191°
2026-05-03 21:31 49.19197 -123.18723 29 ft 13 kts 161°
2026-05-03 21:31 49.19116 -123.18645 29 ft 15 kts 142°
2026-05-03 21:31 49.19035 -123.18547 29 ft 15 kts 143°
2026-05-03 21:32 49.18964 -123.18434 30 ft 15 kts 114°
2026-05-03 21:32 49.18936 -123.18279 30 ft 16 kts 99°
2026-05-03 21:32 49.18914 -123.18106 30 ft 18 kts 101°
2026-05-03 21:32 49.18890 -123.17913 30 ft 19 kts 101°
2026-05-03 21:33 49.18871 -123.17707 30 ft 19 kts 98°
2026-05-03 21:33 49.18847 -123.17498 30 ft 21 kts 99°
2026-05-03 21:33 49.18821 -123.17277 30 ft 21 kts 99°
2026-05-03 21:33 49.18795 -123.17053 30 ft 21 kts 99°
2026-05-03 21:34 49.18770 -123.16829 30 ft 21 kts 99°
2026-05-03 21:34 49.18744 -123.16609 30 ft 21 kts 101°
2026-05-03 21:34 49.18720 -123.16395 30 ft 18 kts 102°
2026-05-03 21:34 49.18657 -123.16231 30 ft 18 kts 126°
2026-05-03 21:35 49.18615 -123.16070 30 ft 15 kts 130°
2026-05-03 21:35 49.18513 -123.16070 29 ft 16 kts 208°
2026-05-03 21:35 49.18490 -123.16216 29 ft 15 kts 284°
2026-05-03 21:35 49.18495 -123.16262 29 ft 0 kts 279°
2026-05-03 21:36 49.18495 -123.16263 29 ft 0 kts 279°
2026-05-03 21:36 49.18496 -123.16268 29 ft 1 kts 279°
2026-05-03 21:36 49.18497 -123.16277 29 ft 1 kts 280°
2026-05-03 21:36 49.18498 -123.16288 29 ft 1 kts 280°
2026-05-03 21:37 49.18500 -123.16303 29 ft 3 kts 280°
2026-05-03 21:37 49.18522 -123.16500 30 ft 36 kts 280°
2026-05-03 21:37 49.18613 -123.17299 30 ft 119 kts 279°
2026-05-03 21:37 49.18800 -123.18907 162 ft 174 kts 281°
2026-05-03 21:38 49.18955 -123.20789 1002 ft 181 kts 273°
2026-05-03 21:38 49.19040 -123.22754 1884 ft 187 kts 272°
2026-05-03 21:38 49.19140 -123.24774 2464 ft 195 kts 274°
2026-05-03 21:38 49.19231 -123.26904 2927 ft 205 kts 273°
2026-05-03 21:39 49.19319 -123.29107 3411 ft 214 kts 275°
2026-05-03 21:39 49.19536 -123.31450 3795 ft 226 kts 278°
2026-05-03 21:39 49.19791 -123.33823 4482 ft 226 kts 275°
2026-05-03 21:39 49.19633 -123.36190 5194 ft 227 kts 243°
2026-05-03 21:40 49.18597 -123.38026 5645 ft 238 kts 210°
2026-05-03 21:40 49.17001 -123.38827 6087 ft 248 kts 187°
2026-05-03 21:40 49.15267 -123.38756 6625 ft 255 kts 160°
2026-05-03 21:40 49.13787 -123.37226 6972 ft 269 kts 124°
2026-05-03 21:41 49.12974 -123.34672 7318 ft 273 kts 102°
2026-05-03 21:41 49.12642 -123.31817 7801 ft 271 kts 95°
2026-05-03 21:41 49.12435 -123.28967 8588 ft 270 kts 93°
2026-05-03 21:41 49.12267 -123.26081 9080 ft 280 kts 94°
2026-05-03 21:42 49.12110 -123.23112 9242 ft 280 kts 94°
2026-05-03 21:42 49.11945 -123.20130 9590 ft 287 kts 92°
2026-05-03 21:42 49.11821 -123.17059 10318 ft 289 kts 91°
2026-05-03 21:42 49.11726 -123.13930 10833 ft 306 kts 91°
2026-05-03 21:43 49.11632 -123.10518 11035 ft 335 kts 91°
2026-05-03 21:43 49.11525 -123.06839 11345 ft 358 kts 91°
2026-05-03 21:43 49.11401 -123.02954 11882 ft 371 kts 91°
2026-05-03 21:43 49.11263 -122.98980 12387 ft 378 kts 92°
2026-05-03 21:44 49.11111 -122.94937 12904 ft 385 kts 91°
2026-05-03 21:44 49.10951 -122.90852 13434 ft 386 kts 92°
2026-05-03 21:44 49.10785 -122.86748 13929 ft 388 kts 92°
2026-05-03 21:44 49.10614 -122.82628 14404 ft 391 kts 92°
2026-05-03 21:45 49.10437 -122.78445 15041 ft 398 kts 92°
2026-05-03 21:45 49.10258 -122.74208 15980 ft 401 kts 92°
2026-05-03 21:45 49.10075 -122.69941 16938 ft 405 kts 92°
2026-05-03 21:45 49.09888 -122.65613 17802 ft 411 kts 92°
2026-05-03 21:46 49.09698 -122.61238 18602 ft 417 kts 92°
2026-05-03 21:46 49.09502 -122.56798 19382 ft 421 kts 92°
2026-05-03 21:46 49.09304 -122.52341 20172 ft 425 kts 92°
2026-05-03 21:46 49.09103 -122.47829 20960 ft 429 kts 92°
2026-05-03 21:47 49.08898 -122.43260 21751 ft 433 kts 92°
2026-05-03 21:47 49.08689 -122.38716 22508 ft 437 kts 92°
2026-05-03 21:47 49.08471 -122.34017 23274 ft 441 kts 92°
2026-05-03 21:47 49.08254 -122.29330 23934 ft 445 kts 92°
2026-05-03 21:48 49.08037 -122.24673 24557 ft 448 kts 92°
2026-05-03 21:48 49.07807 -122.19840 25207 ft 451 kts 92°
2026-05-03 21:48 49.07583 -122.15126 25835 ft 453 kts 91°
2026-05-03 21:48 49.07350 -122.10301 26408 ft 457 kts 91°
2026-05-03 21:49 49.07116 -122.05451 26944 ft 462 kts 91°
2026-05-03 21:49 49.06876 -122.00552 27498 ft 465 kts 91°
2026-05-03 21:49 49.06633 -121.95614 28059 ft 468 kts 91°
2026-05-03 21:49 49.06386 -121.90651 28600 ft 471 kts 91°
2026-05-03 21:50 49.06134 -121.85659 29097 ft 474 kts 91°
2026-05-03 21:50 49.05881 -121.80631 29568 ft 477 kts 91°
2026-05-03 21:50 49.05621 -121.75511 30062 ft 479 kts 91°
2026-05-03 21:50 49.05362 -121.70463 30626 ft 476 kts 90°
2026-05-03 21:51 49.05268 -121.65520 31367 ft 466 kts 85°
2026-05-03 21:51 49.05465 -121.60641 32116 ft 457 kts 78°
2026-05-03 21:51 49.05913 -121.55870 32701 ft 454 kts 77°
2026-05-03 21:51 49.06375 -121.51116 33245 ft 451 kts 77°
2026-05-03 21:52 49.06828 -121.46377 33687 ft 451 kts 77°
2026-05-03 21:52 49.07273 -121.41660 34229 ft 448 kts 77°
2026-05-03 21:52 49.07709 -121.36952 34677 ft 447 kts 77°
2026-05-03 21:52 49.08138 -121.32263 34971 ft 448 kts 77°
2026-05-03 21:53 49.08987 -121.22813 34963 ft 449 kts 77°
2026-05-03 21:53 49.09821 -121.13396 34979 ft 446 kts 77°
2026-05-03 21:54 49.10650 -121.03975 34984 ft 453 kts 77°
2026-05-03 21:54 49.11496 -120.94325 34988 ft 462 kts 77°
2026-05-03 21:55 49.12332 -120.84587 34975 ft 463 kts 77°
2026-05-03 21:55 49.13160 -120.74852 34979 ft 462 kts 77°
2026-05-03 21:56 49.13981 -120.65110 34993 ft 463 kts 77°
2026-05-03 21:56 49.14790 -120.55427 35011 ft 463 kts 77°
2026-05-03 21:57 49.15599 -120.45667 35014 ft 464 kts 78°
2026-05-03 21:57 49.16402 -120.35852 35010 ft 465 kts 78°
2026-05-03 21:58 49.17199 -120.26023 35011 ft 467 kts 78°
2026-05-03 21:58 49.17987 -120.16168 35001 ft 466 kts 78°
2026-05-03 21:59 49.18767 -120.06322 35009 ft 467 kts 79°
2026-05-03 21:59 49.19542 -119.96441 34974 ft 469 kts 79°
2026-05-03 22:00 49.20304 -119.86597 34967 ft 470 kts 79°
2026-05-03 22:00 49.21065 -119.76657 34961 ft 470 kts 79°
2026-05-03 22:01 49.21816 -119.66755 34956 ft 468 kts 79°
2026-05-03 22:01 49.22558 -119.56833 34954 ft 470 kts 79°
2026-05-03 22:02 49.23292 -119.46885 34952 ft 471 kts 79°
2026-05-03 22:02 49.24022 -119.36892 34951 ft 473 kts 79°
2026-05-03 22:03 49.24746 -119.26883 34955 ft 473 kts 79°
2026-05-03 22:03 49.25752 -119.16967 34956 ft 470 kts 74°
2026-05-03 22:04 49.27062 -119.07154 34951 ft 471 kts 74°
2026-05-03 22:04 49.28370 -118.97322 34953 ft 471 kts 74°
2026-05-03 22:05 49.29651 -118.87449 34948 ft 472 kts 75°
2026-05-03 22:05 49.30911 -118.77569 34946 ft 473 kts 75°
2026-05-03 22:06 49.32164 -118.67661 34958 ft 474 kts 75°
2026-05-03 22:06 49.33403 -118.57795 34958 ft 475 kts 75°
2026-05-03 22:07 49.34652 -118.47772 34945 ft 476 kts 76°
2026-05-03 22:07 49.35888 -118.37789 34955 ft 476 kts 76°
2026-05-03 22:08 49.37106 -118.27868 34974 ft 476 kts 76°
2026-05-03 22:08 49.38327 -118.17858 34962 ft 478 kts 76°
2026-05-03 22:09 49.39542 -118.07824 34955 ft 479 kts 76°
2026-05-03 22:10 49.41352 -117.92720 34961 ft 479 kts 76°
2026-05-03 22:10 49.42549 -117.82634 34977 ft 479 kts 76°
2026-05-03 22:11 49.43537 -117.74251 34937 ft 480 kts 76°
2026-05-03 22:11 49.44904 -117.62551 34947 ft 478 kts 76°
2026-05-03 22:12 49.45883 -117.54129 34957 ft 479 kts 76°
2026-05-03 22:12 49.47046 -117.44034 34949 ft 480 kts 76°
2026-05-03 22:13 49.48201 -117.33923 34952 ft 481 kts 76°
2026-05-03 22:13 49.49351 -117.23768 34937 ft 482 kts 76°
2026-05-03 22:14 49.50493 -117.13594 34936 ft 483 kts 76°
2026-05-03 22:14 49.51628 -117.03421 34951 ft 482 kts 77°
2026-05-03 22:15 49.52747 -116.93307 34963 ft 482 kts 77°
2026-05-03 22:15 49.53865 -116.83112 34935 ft 483 kts 77°
2026-05-03 22:16 49.54973 -116.72907 34968 ft 483 kts 77°
2026-05-03 22:16 49.56074 -116.62689 34967 ft 483 kts 77°
2026-05-03 22:17 49.57164 -116.52478 34984 ft 483 kts 77°
2026-05-03 22:17 49.58246 -116.42247 34984 ft 485 kts 77°
2026-05-03 22:18 49.59327 -116.31953 34990 ft 487 kts 77°
2026-05-03 22:18 49.60395 -116.21707 34980 ft 488 kts 77°
2026-05-03 22:19 49.61463 -116.11355 34970 ft 489 kts 77°
2026-05-03 22:19 49.62520 -116.01004 34964 ft 490 kts 77°
2026-05-03 22:20 49.63571 -115.90616 34951 ft 491 kts 77°
2026-05-03 22:20 49.64616 -115.80190 34946 ft 491 kts 77°
2026-05-03 22:21 49.65651 -115.69772 34943 ft 491 kts 77°
2026-05-03 22:21 49.66675 -115.59359 34947 ft 491 kts 77°
2026-05-03 22:22 49.67694 -115.48918 34951 ft 492 kts 77°
2026-05-03 22:22 49.68706 -115.38424 34950 ft 493 kts 77°
2026-05-03 22:23 49.69707 -115.27950 34969 ft 493 kts 78°
2026-05-03 22:23 49.70693 -115.17533 34959 ft 493 kts 78°
2026-05-03 22:24 49.71677 -115.07065 34964 ft 492 kts 78°
2026-05-03 22:24 49.72648 -114.96574 34959 ft 493 kts 78°
2026-05-03 22:25 49.73609 -114.86088 34952 ft 493 kts 78°
2026-05-03 22:25 49.74565 -114.75570 34950 ft 494 kts 78°
2026-05-03 22:26 49.75512 -114.65047 34978 ft 494 kts 78°
2026-05-03 22:26 49.76448 -114.54543 34937 ft 497 kts 78°
2026-05-03 22:27 49.77383 -114.43934 34943 ft 498 kts 78°
2026-05-03 22:27 49.78309 -114.33303 34907 ft 499 kts 78°
2026-05-03 22:28 49.79226 -114.22659 34911 ft 499 kts 78°